Tracking 19574 objects as of 15-Feb-2019
HD Live streaming from Space Station
objects crossing your sky now

HETE 2

Track HETE 2 now!
10-day predictions
HETE 2 is classified as:


NORAD ID: 26561
Int'l Code: 2000-061A
Perigee: 537.6 km
Apogee: 562.3 km
Inclination: 1.9 °
Period: 95.5 minutes
Semi major axis: 6920 km
RCS: 0.631 m2 (medium)
Launch date: October 9, 2000
Source: United States (US)
Launch site: Kwajalein (KWAJ)

Designed to detect and localize gamma-ray bursts.
aabbcc
Your satellite tracking list
Your tracking list is empty




NASA's NSSDC Master Catalog

Two Line Element Set (TLE):
1 26561U 00061A   19042.53872776  .00001239  00000-0  21680-4 0  9994
2 26561   1.9483 184.3492 0017862  57.6356 302.5414 15.07848524  6216
Source of the keplerian elements: AFSPC